Location: Newark
(48.0000°N, 67.0000°E)
Time: 11:00:49
(UTC+00:00)

A-11 Canister half - Pass Details

Date: 18 February 2020
Orbit: 1516 x 1683 km, 47.2° (Epoch: 06 April)

Event Time Altitude Azimuth Distance (km) Brightness Sun altitude
Rises 17:30:42 0° 286° (WNW) 4,811 12.3 -44.0°
Reaches altitude 10° 17:33:52 10° 283° (WNW) 3,801 11.5 -44.4°
Enters shadow 17:39:46 41° 268° (W) 2,132 9.8 -45.1°
